Weather History for Guatemala Aeropuertola Aurora, Guatemala

Change the Weather History Date:

Thursday, January 16, 2014

  Actual Average Record
Temperature  
Mean Temperature 58 °F -  
Max Temperature 68 °F 73 °F - ()
Min Temperature 47 °F 55 °F - ()
Degree Days  
Heating Degree Days 8    
Growing Degree Days 8 (Base 50)    
Moisture  
Dew Point 40 °F    
Average Humidity 56    
Maximum Humidity 82    
Minimum Humidity 37    
Precipitation  
Precipitation 0.00 in - - ()
Sea Level Pressure  
Sea Level Pressure 30.28 in    
Wind  
Wind Speed 16 mph ()    
Max Wind Speed 23 mph    
Max Gust Speed -    
T = Trace of Precipitation, MM = Missing Value Source: Averaged Metar Reports

Daily Weather History Graph

Daily Weather History Graph

Search for Another Location

Airport:

Trip Planner

Search our weather history database for the weather conditions in past years. The results will help you decide how hot, cold, wet, or windy it might be!

Date:

Astronomy

Jan. 16, 2014 Rise Set
Actual Time 6:30 AM CST 5:53 PM CST
Civil Twilight 6:08 AM CST 6:15 PM CST
Nautical Twilight 5:41 AM CST 6:42 PM CST
Astronomical Twilight 5:15 AM CST 7:08 PM CST
Moon 6:28 PM CST (1/16) 6:37 AM CST (1/16)
Length of Visible Light 12h 07m
Length of Day
11h 22m
Full, 100% of the Moon is Illuminated
Jan 16
Full
Jan 23
Last Quarter
Jan 30
New
Feb 6
First Quarter
Feb 14
Full

Hourly Weather History & Observations

Time (CST) Temp. Dew Point Humidity Pressure Visibility Wind Dir Wind Speed Gust Speed Precip Events Conditions
12:00 AM 51.8 °F 42.8 °F 71% 30.36 in - North 20.7 mph - N/A   Clear
1:00 AM 51.8 °F 41.0 °F 67% 30.36 in - North 23.0 mph - N/A   Clear
2:00 AM 50.0 °F 41.0 °F 71% 30.33 in - North 20.7 mph - N/A   Clear
3:00 AM 50.0 °F 39.2 °F 66% 30.33 in - North 16.1 mph - N/A   Clear
4:00 AM 50.0 °F 39.2 °F 66% 30.30 in - North 13.8 mph - N/A   Clear
5:00 AM 48.2 °F 37.4 °F 66% 30.33 in - North 13.8 mph - N/A   Clear
6:00 AM 49 °F 35 °F 47% 30.12 in 25 mi North 13.8 mph - -  
6:00 AM 48.2 °F 35.6 °F 62% 30.33 in - North 13.8 mph - N/A   Clear
7:00 AM 50.0 °F 33.8 °F 54% 30.33 in - North 16.1 mph - N/A   Clear
8:00 AM 53.6 °F 37.4 °F 54% 30.33 in - North 11.5 mph - N/A   Clear
9:00 AM 55.4 °F 32.0 °F 41% 30.36 in - North 16.1 mph - N/A   Clear
10:00 AM 59.0 °F 35.6 °F 42% 30.36 in - North 13.8 mph - N/A   Clear
11:00 AM 60.8 °F 35.6 °F 39% 30.33 in - North 16.1 mph - N/A   Clear
12:00 PM 62.6 °F 37.4 °F 39% 30.30 in - NNW 18.4 mph - N/A   Clear
1:00 PM 64.4 °F 37.4 °F 37% 30.27 in - NE 13.8 mph - N/A   Clear
2:00 PM 66.2 °F 44.6 °F 46% 30.24 in - North 20.7 mph - N/A   Clear
3:00 PM 66.2 °F 44.6 °F 46% 30.24 in - North 18.4 mph - N/A   Clear
4:00 PM 66.2 °F 42.8 °F 43% 30.21 in - North 20.7 mph - N/A   Clear
5:00 PM 64.4 °F 42.8 °F 45% 30.21 in - NNE 16.1 mph - N/A   Clear
6:00 PM 59 °F 43 °F 43% 30.04 in 25 mi North 20.7 mph - -  
6:00 PM 59.0 °F 42.8 °F 55% 30.24 in - North 20.7 mph - N/A   Clear
7:00 PM 55.4 °F 44.6 °F 67% 30.27 in - NNE 20.7 mph - N/A   Clear
8:00 PM 53.6 °F 42.8 °F 67% 30.30 in - North 16.1 mph - N/A   Clear
9:00 PM 51.8 °F 42.8 °F 71% 30.30 in - NNE 16.1 mph - N/A   Clear
10:00 PM 51.8 °F 44.6 °F 76% 30.30 in - North 13.8 mph - N/A   Clear
11:00 PM 50.0 °F 44.6 °F 82% 30.30 in - North 13.8 mph - N/A   Clear